Terrell, TX

8:22 PM CDT on August 22, 2017 (GMT -0500)
Terrell Municipal

Weather History for KTRL - March, 2013

Change the Weather History Date:

Friday, March 1, 2013

  Actual Average (KGVT) Record (KGVT)
Temperature  
Mean Temperature 42 °F -  
Max Temperature 53 °F 59 °F 82 °F (2006)
Min Temperature 32 °F 43 °F 26 °F (2009)
Degree Days  
Heating Degree Days 22    
Moisture  
Dew Point 27 °F    
Average Humidity 53    
Maximum Humidity 73    
Minimum Humidity 37    
Precipitation  
Precipitation 0.00 in - - ()
Sea Level Pressure  
Sea Level Pressure 30.25 in    
Wind  
Wind Speed 7 mph (NNW)    
Max Wind Speed 13 mph    
Max Gust Speed 21 mph    
Visibility 10 miles    
Events      
Averages and records for this station are not official NWS values.
T = Trace of Precipitation, MM = Missing Value Source: NWS Daily Summary

Daily Weather History Graph

Daily Weather History Graph

Search for Another Location

Airport or City:

Trip Planner

Search our weather history database for the weather conditions in past years. The results will help you decide how hot, cold, wet, or windy it might be!

Date:

Astronomy

Mar. 01, 2013 Rise Set
Actual Time 6:52 AM CST 6:22 PM CST
Civil Twilight 6:27 AM CST 6:47 PM CST
Nautical Twilight 5:59 AM CST 7:15 PM CST
Astronomical Twilight 5:30 AM CST 7:44 PM CST
Moon 10:39 PM CST (3/1) 8:56 AM CST (3/1)
Length of Visible Light 12h 19m
Length of Day
11h 30m
Waning Gibbous, 83% of the Moon is Illuminated
Mar 1
Waning Gibbous
Mar 4
Last Quarter
Mar 11
New
Mar 19
First Quarter
Mar 27
Full

Hourly Weather History & Observations

Time (CST) Temp. Windchill Dew Point Humidity Pressure Visibility Wind Dir Wind Speed Gust Speed Precip Events Conditions
12:53 AM 39.0 °F 35.7 °F 24.1 °F 55% 30.23 in 10.0 mi NNW 4.6 mph - N/A   Clear
1:53 AM 41.0 °F 37.1 °F 25.0 °F 53% 30.22 in 10.0 mi North 5.8 mph - N/A   Clear
2:53 AM 32.0 °F 27.5 °F 24.1 °F 73% 30.21 in 10.0 mi WNW 4.6 mph - N/A   Clear
3:53 AM 33.1 °F 27.7 °F 24.1 °F 70% 30.23 in 10.0 mi WNW 5.8 mph - N/A   Clear
4:53 AM 34.0 °F 31.0 °F 25.0 °F 70% 30.23 in 10.0 mi NW 3.5 mph - N/A   Clear
6:53 AM 34.0 °F 29.8 °F 26.1 °F 73% 30.25 in 9.0 mi NNW 4.6 mph - N/A   Clear
8:53 AM 39.9 °F 35.1 °F 28.0 °F 63% 30.30 in 7.0 mi North 6.9 mph - N/A   Clear
9:53 AM 43.0 °F 39.5 °F 28.9 °F 58% 30.31 in 7.0 mi North 5.8 mph - N/A   Clear
10:53 AM 46.9 °F - 27.0 °F 46% 30.30 in 9.0 mi North 6.9 mph - N/A   Clear
11:53 AM 50.0 °F - 28.0 °F 43% 30.28 in 10.0 mi NW 10.4 mph 16.1 mph N/A   Clear
12:53 PM 52.0 °F - 26.1 °F 37% 30.25 in 10.0 mi NW 10.4 mph - N/A   Partly Cloudy
1:53 PM 51.1 °F - 27.0 °F 39% 30.23 in 9.0 mi NNW 9.2 mph 20.7 mph N/A   Overcast
2:53 PM 51.1 °F - 28.0 °F 41% 30.21 in 10.0 mi NW 6.9 mph - N/A   Mostly Cloudy
3:53 PM 53.1 °F - 28.9 °F 40% 30.20 in 10.0 mi North 5.8 mph 16.1 mph N/A   Overcast
4:53 PM 52.0 °F - 28.0 °F 40% 30.21 in 10.0 mi NNW 9.2 mph - N/A   Partly Cloudy
5:53 PM 51.1 °F - 28.9 °F 43% 30.22 in 10.0 mi North 12.7 mph - N/A   Clear
6:53 PM 48.9 °F - 28.9 °F 46% 30.23 in 10.0 mi North 8.1 mph - N/A   Mostly Cloudy
7:53 PM 46.9 °F - 28.0 °F 48% 30.24 in 10.0 mi NNW 10.4 mph - N/A   Clear
8:53 PM 44.1 °F 40.1 °F 28.9 °F 55% 30.25 in 10.0 mi NW 6.9 mph - N/A   Clear
9:53 PM 44.1 °F 38.6 °F 28.9 °F 55% 30.27 in 10.0 mi NNW 10.4 mph - N/A   Clear
10:53 PM 43.0 °F 37.2 °F 28.0 °F 56% 30.28 in 9.0 mi NNW 10.4 mph - N/A   Clear
11:53 PM 39.9 °F 32.9 °F 26.1 °F 58% 30.30 in 10.0 mi North 11.5 mph - N/A   Clear